Location: Pinawa
(50.1500°N, 95.8830°W)
Time: 03:44:55
(UTC-05:00)

Daily predictions for brighter satellites

Satellite Brightness Start Highest point End
(mag) Time Altitude Azimuth Time Altitude Azimuth Time Altitude Azimuth
Cosmos 1626 2.3 00:09:55 21° SSW 00:12:18 71° WNW 00:16:03 10° N
SL-8 R/B 3.7 00:07:46 10° WSW 00:12:30 56° SSE 00:17:14 10° E
CZ-2C R/B 2.7 00:07:21 10° NNE 00:12:52 81° WNW 00:17:21 15° SSW
H-2A R/B 3.3 00:10:33 15° ESE 00:13:12 30° ENE 00:16:47 10° N
Cosmos 2315 Rocket 4.1 00:09:17 16° SSW 00:14:33 83° W 00:20:58 10° N
Mayak -0.2 00:11:32 10° NNE 00:15:17 31° E 00:16:59 23° SE
Cosmos 1455 2.1 00:15:28 10° N 00:19:15 86° E 00:21:04 30° SSE
Cosmos 1328 4.0 00:16:58 21° SSW 00:19:32 68° WNW 00:23:29 10° N
BREEZE-M DEB (TANK) 1.8 00:18:50 10° WSW 00:22:54 73° S 00:25:07 10° E
BREEZE-M R/B 4.3 00:16:53 10° WNW 00:22:55 53° SSW 00:27:59 16° SE
CZ-4C R/B 4.1 00:20:47 22° SE 00:22:58 43° ENE 00:26:37 10° N
Okean 3 Rocket 3.7 00:20:17 20° SSW 00:23:15 72° WNW 00:27:39 10° N
Aureole 3 Rocket 4.2 00:17:07 15° SSW 00:23:45 82° W 00:29:20 10° N
Cosmos 2228 Rocket 3.6 00:24:03 10° N 00:28:27 49° ENE 00:30:52 24° SE
Cosmos 2184 Rocket 4.1 00:22:15 10° N 00:28:39 79° E 00:32:49 23° SSE
NOSS 2-2 (E) 3.5 00:27:01 22° SSW 00:29:25 62° SE 00:34:05 10° NE
NOSS 3-4 (A) 3.4 00:23:45 10° SW 00:29:56 79° SE 00:36:30 10° NE
NOSS 3-4 (C) 3.4 00:23:51 10° SW 00:30:01 78° SE 00:36:35 10° NE
Cosmos 407 Rocket 4.4 00:28:15 23° SSE 00:30:33 33° ESE 00:35:10 10° NE
Cosmos 371 Rocket 4.1 00:26:28 10° NNW 00:31:09 46° ENE 00:34:35 17° SE
Cosmos 2151 3.6 00:29:21 26° SSE 00:31:16 43° E 00:35:19 10° NNE
Meteor 1-11 4.3 00:27:59 21° S 00:32:01 87° E 00:37:52 10° NNE
COBE Rocket 4.1 00:28:38 10° N 00:33:39 72° WNW 00:37:26 18° SSW
CENTAUR R/B 3.2 00:27:16 10° NW 00:35:04 72° SW 00:41:22 20° SSE
Cosmos 2154 Rocket 4.4 00:29:07 10° N 00:35:22 55° ENE 00:39:42 20° SSE
EP 1 4.4 00:34:24 27° SW 00:35:37 70° NW 00:38:15 10° NE
ADEOS Rocket 3.3 00:30:56 10° NNE 00:36:38 53° E 00:40:27 23° SSE
Cosmos 1328 Rocket 3.5 00:40:56 10° NNW 00:45:17 78° W 00:47:27 29° S
SL-27 R/B 3.3 00:42:44 10° NW 00:46:11 40° WSW 00:47:26 29° SSW
USA 234 4.2 00:41:01 10° ENE 00:46:25 27° SE 00:48:42 22° SSE
Cosmos 2058 2.9 00:45:07 30° S 00:47:06 77° E 00:51:14 10° NNE
Cosmos 1743 Rocket 3.8 00:48:39 29° SSE 00:50:40 57° E 00:55:02 10° NNE
Terra 4.2 00:50:56 10° WSW 00:53:09 13° W 00:55:22 10° WNW
Cosmos 2278 Rocket 3.0 00:48:26 10° SW 00:53:57 50° NW 00:59:31 10° NNE
Cosmos 1441 Rocket 3.4 00:50:12 10° NNW 00:53:59 59° W 00:55:29 32° SSW
NOSS 2-2 (D) 3.4 00:56:49 19° SW 00:59:35 89° NW 01:04:20 10° NE
Cosmos 332 Rocket 3.9 00:54:44 10° NNW 00:59:42 79° ENE 01:02:33 25° SSE
Cosmos 405 Rocket 2.8 00:59:03 10° NNW 01:02:43 61° W 01:04:06 34° SSW
Cosmos 1500 Rocket 3.5 01:14:35 31° S 01:16:36 83° E 01:20:58 10° NNE
Cosmos 1869 3.4 01:14:55 10° NNW 01:18:53 64° W 01:20:31 33° SSW
Meteor 2-10 Rocket 3.6 01:14:08 10° NNW 01:19:12 68° W 01:22:01 27° S
Nadezhda 1 Rocket 4.1 01:15:06 23° SSW 01:19:19 81° W 01:25:45 10° N
Meteor 2-21 Rocket 4.5 01:13:36 10° NNW 01:19:39 73° W 01:23:17 25° S
ALOS 2 3.3 01:18:42 26° SSW 01:20:40 41° W 01:24:51 10° NNW
Cosmos 1461 4.4 01:17:27 10° WSW 01:21:57 42° NW 01:26:32 10° NNE
Timation 2 Rocket 4.2 01:17:36 10° NNW 01:24:19 85° ENE 01:29:41 18° SSE
Cosmos 2369 Rocket 3.2 01:22:26 22° SSE 01:25:06 33° ESE 01:30:06 10° NE
NOSS 2-2 (C) 4.1 01:22:10 12° WSW 01:25:46 58° NW 01:30:31 10° NE
RESURS DK-1 2.8 01:24:09 19° SW 01:26:55 58° NW 01:31:02 10° NNE
Cosmos 1241 Rocket 4.5 01:25:54 15° SW 01:31:09 82° NW 01:37:29 10° NE
Cosmos 2297 4.2 01:29:52 14° SW 01:34:42 58° NW 01:40:23 10° NNE
CZ-4B R/B 3.7 01:29:57 10° NNE 01:35:15 72° WNW 01:38:32 23° SSW
Cosmos 1151 Rocket 4.1 01:32:50 10° NNW 01:36:43 34° W 01:38:35 23° SW
Cosmos 2082 Rocket 3.8 01:32:44 10° NW 01:36:58 22° W 01:39:31 16° SW
Lacrosse 5 3.4 01:33:16 10° WNW 01:38:01 39° N 01:42:46 10° ENE
MOS 1 Rocket 4.0 01:34:41 10° NNE 01:39:32 45° E 01:42:00 24° SSE
ATLAS 5 CENTAUR R/B 2.6 01:36:38 10° WSW 01:41:10 52° NW 01:46:16 10° NE
SL-16 R/B 4.4 01:36:34 10° ESE 01:41:24 25° NE 01:46:15 10° N
BREEZE M DEB (TANK) 3.5 01:28:34 10° WSW 01:41:25 61° SSE 01:45:05 10° E
CZ-4B R/B 3.8 01:42:06 10° ESE 01:44:11 17° ENE 01:46:15 10° NNE
COSMOS 2487 2.8 01:41:10 10° NNW 01:44:36 51° WSW 01:45:34 38° SSW
H-2A R/B 3.1 01:47:40 24° SW 01:49:11 31° W 01:52:52 10° NNW
Cosmos 1666 Rocket 4.2 01:48:42 24° SSE 01:50:51 44° E 01:54:58 10° NNE
Mayak 0.2 01:47:12 10° N 01:50:51 30° WNW 01:53:36 15° WSW
PSLV R/B 4.5 01:47:17 10° NNE 01:51:49 44° E 01:54:21 24° SSE
Cosmos 1825 4.3 01:50:28 12° ESE 01:52:32 18° E 01:55:08 10° NE
SL-8 R/B 3.6 01:50:03 10° W 01:54:53 74° S 01:59:42 10° E
Cosmos 1408 4.5 01:54:44 15° SE 01:56:37 22° E 01:59:31 10° NE
Cosmos 1140 Rocket 3.4 01:55:31 26° SSW 01:58:31 87° WNW 02:03:41 10° NNE
Cosmos 2208 Rocket 4.4 01:53:10 10° NNW 01:58:33 66° ENE 02:03:10 14° SE
Lacrosse 4 Rocket 4.0 01:58:34 10° ESE 01:59:31 11° ESE 02:00:28 10° E
Cosmos 304 Rocket 3.7 01:54:48 10° NNW 01:59:37 82° WSW 02:02:29 24° SSE
Cosmos 1818 4.1 01:54:32 10° NW 02:00:00 62° NE 02:05:25 10° SE
In-Cosmos 22 Rocket 4.1 01:57:09 26° S 02:00:14 89° ESE 02:05:41 10° NNE
Cosmos 468 Rocket 4.5 01:56:22 10° NNW 02:01:28 58° ENE 02:06:07 12° SE
SL-24 R/B 4.4 02:00:15 10° N 02:04:34 67° WNW 02:07:18 25° SSW
Cosmos 1954 Rocket 4.0 02:02:00 24° SSW 02:05:09 79° WNW 02:10:22 10° NNE
deb Chang Zheng 4 4.0 02:01:16 10° N 02:05:36 58° WNW 02:08:05 24° SW
Cosmos 676 Rocket 4.1 02:02:21 23° SW 02:05:39 70° WNW 02:10:51 10° NNE
CZ-4C R/B 3.4 02:04:03 25° SSE 02:05:59 63° ENE 02:09:40 10° N
Cosmos 614 Rocket 4.1 02:03:59 23° SW 02:07:13 72° WNW 02:12:22 10° NNE
Cosmos 1833 4.4 02:03:22 10° NNW 02:08:58 72° ENE 02:14:27 11° SE
Cosmos 1943 Rocket 2.4 02:08:35 24° S 02:11:45 56° ESE 02:17:12 10° NE
Cosmos 407 Rocket 4.4 02:08:25 14° SW 02:12:27 41° WNW 02:17:23 10° NNE
CZ-2D R/B 4.2 02:12:23 10° NE 02:16:00 18° E 02:19:37 10° SE
Cosmos 1933 3.5 02:12:19 10° NNW 02:16:19 61° W 02:18:07 30° SSW
Cosmos 2242 Rocket 4.1 02:12:27 10° N 02:16:53 56° ENE 02:20:05 18° SSE
Cosmos 1892 2.6 02:16:36 32° SSW 02:18:16 79° W 02:22:05 10° N
ADEOS Rocket 4.2 02:16:58 10° N 02:22:01 32° WNW 02:27:25 10° WSW
SL-24 R/B 4.5 02:17:56 10° NNE 02:22:42 82° WNW 02:26:04 23° SSW
CZ-2C R/B 3.3 02:20:36 18° SSE 02:23:48 54° E 02:27:30 10° N
Cosmos 1689 Rocket 3.3 02:22:32 18° SE 02:24:27 38° ENE 02:27:18 10° N
Meteor 1-26 Rocket 4.2 02:18:46 10° NNW 02:24:34 83° W 02:28:31 21° S
CENTAUR R/B 4.5 02:19:16 10° WNW 02:24:50 21° WSW 02:28:31 16° SW
Cosmos 2181 Rocket 4.3 02:25:43 21° SSW 02:30:02 59° WNW 02:36:14 10° N
USA 234 3.2 02:23:33 10° ENE 02:30:08 77° SE 02:36:01 13° SW
Cosmos 1782 3.6 02:28:10 10° N 02:32:03 47° ENE 02:35:08 15° SSE
Cosmos 1570 Rocket 4.1 02:27:56 10° NNW 02:33:10 63° WSW 02:36:40 21° S
Cosmos 292 Rocket 4.5 02:29:13 10° NNW 02:33:57 53° ENE 02:38:41 10° SE
Cosmos 1805 Rocket 4.3 02:35:01 21° SW 02:37:31 41° WNW 02:41:44 10° N
Sich 1 3.5 02:41:19 23° SW 02:43:50 51° WNW 02:48:09 10° N
Resurs 1-4 Rocket 3.5 02:40:18 10° NNE 02:45:01 31° E 02:49:41 10° SSE
Cosmos 2218 Rocket 4.4 02:40:00 10° NNW 02:45:52 48° W 02:49:58 20° SSW
Cosmos 1862 Rocket 3.6 02:41:30 10° NNW 02:46:02 82° W 02:49:04 20° S
Cosmos 1850 Rocket 4.1 02:45:12 21° SSW 02:48:43 74° WNW 02:54:00 10° NNE
SL-08 R/B 4.0 02:46:11 10° SE 02:50:46 52° ENE 02:55:19 10° N
Okean 1-7 4.3 02:51:10 10° N 02:55:20 39° ENE 02:59:27 10° SE
Spot 2 4.1 02:55:19 10° NNE 02:59:46 77° ESE 03:02:37 20° S
Cosmos 2297 Rocket 4.3 02:55:27 10° NNW 03:00:20 29° NE 03:05:11 10° ESE
H-2A R/B 3.9 02:57:39 10° NE 03:01:13 29° E 03:04:28 11° SSE
ARIANE 5 R/B 4.2 02:59:13 10° NE 03:03:20 25° E 03:07:27 10° SSE
Cosmos 1763 Rocket 3.4 02:59:14 10° NNW 03:04:18 70° WSW 03:08:56 12° SSE
Meteor 2-3 Rocket 3.9 03:00:10 19° SSW 03:04:21 67° WNW 03:10:09 10° N
Cosmos 1633 Rocket 3.8 03:01:57 19° SW 03:04:44 43° WNW 03:09:00 10° N
Cosmos 2227 Rocket 4.0 03:03:44 10° NNW 03:08:54 34° NE 03:14:02 10° ESE
Cosmos 2369 Rocket 2.8 03:04:12 14° SW 03:08:57 50° NW 03:14:28 10° NNE
Cosmos 1862 4.3 03:08:16 12° SSE 03:11:37 40° E 03:15:21 10° NNE
Cosmos 1470 Rocket 3.7 03:08:44 20° SSW 03:11:47 66° WNW 03:16:15 10° N
Meteor 2-15 Rocket 4.5 03:07:18 18° SSW 03:12:01 76° WNW 03:18:08 10° N
Landsat 5 4.1 03:12:25 20° SSW 03:14:24 34° W 03:17:58 10° NNW
CZ-4B R/B 2.1 03:15:14 22° SW 03:16:31 32° W 03:19:21 10° NNW
USA 102 4.4 03:15:46 14° ESE 03:17:02 32° NE 03:20:44 10° NNW
Cosmos 405 3.8 03:18:22 19° SW 03:20:30 40° WNW 03:23:54 10° N
Cosmos 540 Rocket 3.7 03:15:26 10° NNW 03:20:36 73° ENE 03:25:42 10° SSE
AQUA 4.1 03:16:18 10° NNE 03:21:02 63° ESE 03:25:10 13° S
Lacrosse 5 3.0 03:16:53 10° WNW 03:21:49 48° NNE 03:26:43 10° E
Cosmos 1814 Rocket 4.2 03:17:59 10° NNW 03:23:11 55° WSW 03:28:09 11° S
Cosmos 1535 Rocket 4.5 03:17:12 10° N 03:23:21 88° WSW 03:29:30 10° S
Cosmos 1606 3.5 03:20:17 10° NNW 03:23:47 34° W 03:26:03 18° SSW
SL-16 R/B 2.5 03:18:17 10° SSE 03:24:27 77° WSW 03:30:40 10° NNW
ATLAS 5 CENTAUR R/B 4.3 03:23:08 10° WNW 03:27:02 22° NNW 03:31:18 10° NE
Cosmos 1605 Rocket 4.4 03:21:00 10° N 03:27:05 64° ENE 03:33:10 10° SSE
Cosmos 1825 2.9 03:25:19 18° SW 03:27:47 41° WNW 03:31:25 10° N
COSMOS 2455 2.8 03:24:40 10° NW 03:30:41 70° WSW 03:36:39 10° SSE
Cosmos 1408 3.7 03:29:07 16° SW 03:31:32 32° WNW 03:34:55 10° N
Cosmos 1184 Rocket 3.3 03:28:22 10° N 03:31:37 60° ENE 03:34:51 10° SSE
Nadezhda 3 Rocket 4.2 03:26:51 15° SSW 03:32:13 66° WNW 03:38:34 10° N
Meteor 2-17 Rocket 4.4 03:26:52 10° NNW 03:33:00 78° W 03:39:07 10° S
NOSS 3-1 (C) 4.3 03:26:29 10° NW 03:33:47 73° NE 03:42:04 10° SE
Cosmos 1933 Rocket 4.1 03:30:48 16° SW 03:34:01 47° WNW 03:38:16 10° N
Cosmos 1867 3.9 03:29:59 15° SSW 03:34:25 60° ESE 03:39:49 10° NE
UNK 3.8 03:30:15 11° S 03:34:41 63° WSW 03:39:20 10° NNW
Cosmos 841 Rocket 3.6 03:29:34 10° NNW 03:34:41 56° WSW 03:39:44 10° S
IRS-1C 4.3 03:31:38 10° NNE 03:37:00 72° ESE 03:42:10 11° S
SL-8 R/B 4.0 03:32:35 10° W 03:37:12 46° SSW 03:41:47 10° SE
Lacrosse 4 Rocket 1.6 03:33:53 16° SSW 03:37:23 75° ESE 03:41:53 10° NE
Cosmos 1656 Rocket 3.8 03:35:08 14° SW 03:40:01 77° WNW 03:45:40 10° NNE
SL-24 DEB 4.3 03:37:53 12° S 03:42:10 65° W 03:46:47 10° N
Cosmos 1934 Rocket 4.1 03:36:30 10° NNW 03:42:51 73° W 03:49:06 10° S
Cosmos 1818 4.5 03:38:35 10° NW 03:43:15 29° WSW 03:47:55 10° S
NPP 3.8 03:43:18 10° N 03:48:40 67° WNW 03:53:40 12° SSW
GP-B 4.1 03:45:00 10° NNW 03:49:00 33° W 03:52:30 13° SW
IRS-1D 3.6 03:46:58 10° NNE 03:52:10 84° ESE 03:57:14 10° SSW
ATLAS CENTAUR R/B 3.6 03:51:43 10° SSE 03:54:01 15° ESE 03:56:24 10° ENE
ADEOS II 3.7 03:50:12 10° NNE 03:54:51 30° E 03:59:27 10° SSE
Cosmos 1943 Rocket 3.4 03:50:51 10° WSW 03:55:48 32° NW 04:00:49 10° NNE
Cosmos 1689 Rocket 4.3 03:55:06 11° WSW 03:56:20 13° W 03:57:51 10° WNW
CZ-2D R/B 2.2 03:51:22 10° NNE 03:56:40 77° WNW 04:02:00 10° SSW
Cosmos 44 4.3 03:54:11 10° S 03:58:31 38° ESE 04:03:09 10° NE
Cosmos 1812 3.3 03:56:51 10° N 04:00:43 61° ENE 04:04:32 10° SSE
Cosmos 1437 Rocket 2.9 03:56:50 10° SSW 04:00:53 84° WNW 04:05:02 10° N
Cosmos 2221 Rocket 3.7 03:58:13 10° NNW 04:02:37 64° W 04:07:01 10° S
Meteor 1-4 Rocket 2.6 04:04:35 10° S 04:08:12 82° ESE 04:11:57 10° NNE
USA 229 DEB 3.9 04:01:51 10° NW 04:08:51 59° SW 04:16:03 10° SSE
USA 229 3.9 04:01:57 10° NW 04:08:58 59° SW 04:16:10 10° SSE
NOSS 3-1 (A) 4.2 04:02:16 10° NW 04:09:38 82° NE 04:18:02 10° SE
Cosmos 1869 Rocket 3.7 04:05:28 10° SSW 04:09:46 61° WNW 04:14:08 10° N
Cosmos 1354 Rocket 4.4 04:05:10 10° S 04:10:19 63° ESE 04:15:30 10° NNE
USA 102 3.9 04:10:25 14° WSW 04:11:13 16° WNW 04:13:38 10° NW
USA 234 3.9 04:06:39 10° ENE 04:13:02 57° NNW 04:19:26 10° W
Cosmos 1486 Rocket 4.2 04:08:13 10° SSW 04:13:32 71° WNW 04:18:53 10° NNE
SeaSat 1 4.5 04:11:59 10° ESE 04:16:23 34° NE 04:20:49 10° NNW
Cosmos 2219 3.5 04:12:39 10° NW 04:18:04 46° WSW 04:23:23 10° S
Helios 1A Rocket 3.6 04:14:11 10° NNE 04:18:08 51° E 04:22:05 10° S
SL-24 R/B - RUBIN 2 4.2 04:15:05 10° NW 04:19:25 62° NE 04:23:49 10° SE
Cosmos 2173 Rocket 4.4 04:16:27 10° N 04:22:33 66° ENE 04:28:35 10° SSE
Meteor 1-27 Rocket 4.4 04:17:47 10° NNW 04:23:11 41° W 04:28:38 10° SSW
Genesis I 3.7 04:19:51 10° NW 04:23:43 40° WSW 04:27:31 10° SSE
Resurs 1-4 Rocket 2.7 04:19:57 10° N 04:25:02 46° WNW 04:30:05 10° SW
Cosmos 1727 Rocket 4.1 04:19:42 10° S 04:25:55 87° W 04:32:15 10° N
Cosmos 389 Rocket 3.0 04:26:35 10° S 04:30:10 64° E 04:33:48 10° NNE
